When you browse on this site, cookies collect data to enhance your experience and personalize the content and advertising you see.
Visit our Privacy Policy to learn more. By continuing to use the site, you agree to this use of cookies and data.
  • In Portugal
  • List of Countries
  • For 7 days
  • Water Temperature
  • Satellite Maps
  • Weather Map
  • Weather Widgets
  • user-avatar
    Login

    Hourly Weather Luanda

    Today, 22 March, Friday

    Time Temperature Precipitation Wind Pressure Humidity
    00:00 +29°C° 0 mm 3 mps 751 mmHg 86%
    01:00 +29°C° 0 mm 3 mps 751 mmHg 88%
    02:00 +29°C° 0 mm 3 mps 751 mmHg 88%
    03:00 +29°C° 0 mm 3 mps 751 mmHg 88%
    04:00 +29°C° 0 mm 2 mps 751 mmHg 88%
    05:00 +29°C° 0 mm 2 mps 751 mmHg 88%
    06:00 +29°C° 0 mm 2 mps 751 mmHg 88%
    07:00 +29°C° 0 mm 2 mps 752 mmHg 86%
    08:00 +30°C° 0 mm 2 mps 752 mmHg 82%
    09:00 +31°C° 0 mm 2 mps 752 mmHg 78%
    10:00 +31°C° 0 mm 2 mps 752 mmHg 74%
    11:00 +32°C° 0 mm 1 mps 752 mmHg 70%
    12:00 +34°C° 0 mm 1 mps 751 mmHg 66%
    13:00 +32°C° 0 mm 1 mps 751 mmHg 73%
    14:00 +32°C° 0 mm 2 mps 750 mmHg 71%
    15:00 +34°C° 0 mm 3 mps 750 mmHg 70%
    16:00 +34°C° 0 mm 4 mps 749 mmHg 69%
    17:00 +33°C° 0 mm 4 mps 750 mmHg 73%
    18:00 +32°C° 0 mm 4 mps 750 mmHg 78%
    19:00 +30°C° 0 mm 4 mps 750 mmHg 83%
    20:00 +30°C° 0 mm 4 mps 751 mmHg 84%
    21:00 +30°C° 0 mm 4 mps 751 mmHg 85%
    22:00 +30°C° 0 mm 4 mps 752 mmHg 86%
    23:00 +29°C° 0 mm 3 mps 752 mmHg 87%

    Tomorrow, 23 March, Saturday

    Time Temperature Precipitation Wind Pressure Humidity
    00:00 +29°C° 0 mm 3 mps 752 mmHg 88%
    01:00 +29°C° 0 mm 2 mps 752 mmHg 89%
    02:00 +29°C° 0.8 mm 3 mps 752 mmHg 89%
    03:00 +29°C° 0.8 mm 3 mps 751 mmHg 90%
    04:00 +29°C° 0.8 mm 3 mps 751 mmHg 90%
    05:00 +29°C° 0.1 mm 3 mps 752 mmHg 90%
    06:00 +29°C° 0.1 mm 3 mps 752 mmHg 90%
    07:00 +29°C° 0.1 mm 3 mps 752 mmHg 91%
    08:00 +30°C° 0 mm 4 mps 753 mmHg 86%
    09:00 +32°C° 0 mm 4 mps 753 mmHg 82%
    10:00 +32°C° 0 mm 4 mps 753 mmHg 77%
    11:00 +33°C° 0.1 mm 4 mps 753 mmHg 74%
    12:00 +34°C° 0.1 mm 4 mps 752 mmHg 71%
    13:00 +34°C° 0.1 mm 4 mps 752 mmHg 67%
    14:00 +34°C° 0.1 mm 5 mps 751 mmHg 68%
    15:00 +34°C° 0.1 mm 5 mps 751 mmHg 68%
    16:00 +34°C° 0.1 mm 5 mps 750 mmHg 68%
    17:00 +33°C° 1.9 mm 4 mps 751 mmHg 74%
    18:00 +32°C° 1.9 mm 4 mps 752 mmHg 79%
    19:00 +29°C° 1.9 mm 3 mps 753 mmHg 85%
    20:00 +29°C° 0.2 mm 3 mps 753 mmHg 86%
    21:00 +29°C° 0.2 mm 4 mps 753 mmHg 87%
    22:00 +29°C° 0.2 mm 4 mps 753 mmHg 88%
    23:00 +29°C° 0.1 mm 4 mps 753 mmHg 88%

    Day after tomorrow, 24 March, Sunday

    Time Temperature Precipitation Wind Pressure Humidity
    00:00 +29°C° 0.1 mm 3 mps 753 mmHg 88%
    01:00 +29°C° 0.1 mm 3 mps 753 mmHg 88%
    02:00 +28°C° 5.8 mm 4 mps 753 mmHg 89%
    03:00 +28°C° 5.8 mm 4 mps 752 mmHg 89%
    04:00 +27°C° 5.8 mm 5 mps 752 mmHg 89%
    05:00 +27°C° 3.5 mm 5 mps 753 mmHg 90%
    06:00 +27°C° 3.5 mm 5 mps 753 mmHg 90%
    07:00 +27°C° 3.5 mm 4 mps 753 mmHg 91%
    08:00 +28°C° 0.3 mm 3 mps 753 mmHg 85%
    09:00 +29°C° 0.3 mm 3 mps 754 mmHg 80%
    10:00 +30°C° 0.3 mm 2 mps 754 mmHg 75%
    11:00 +31°C° 0 mm 2 mps 753 mmHg 71%
    12:00 +32°C° 0 mm 2 mps 753 mmHg 66%
    13:00 +34°C° 0 mm 3 mps 752 mmHg 62%
    14:00 +34°C° 0 mm 3 mps 751 mmHg 62%
    15:00 +34°C° 0 mm 3 mps 751 mmHg 62%
    16:00 +34°C° 0 mm 4 mps 750 mmHg 62%
    17:00 +33°C° 0 mm 4 mps 751 mmHg 68%
    18:00 +32°C° 0 mm 4 mps 752 mmHg 74%
    19:00 +29°C° 0 mm 3 mps 752 mmHg 79%
    20:00 +29°C° 0 mm 3 mps 752 mmHg 80%
    21:00 +29°C° 0 mm 3 mps 753 mmHg 81%
    22:00 +29°C° 0 mm 3 mps 753 mmHg 82%
    23:00 +29°C° 0 mm 3 mps 753 mmHg 83%

    25 March, Monday

    Time Temperature Precipitation Wind Pressure Humidity
    00:00 +29°C° 0 mm 3 mps 752 mmHg 83%
    01:00 +29°C° 0 mm 3 mps 752 mmHg 83%
    02:00 +28°C° 0 mm 3 mps 752 mmHg 84%
    03:00 +28°C° 0 mm 3 mps 751 mmHg 86%
    04:00 +28°C° 0 mm 3 mps 751 mmHg 87%
    05:00 +28°C° 0 mm 3 mps 752 mmHg 87%
    06:00 +28°C° 0 mm 2 mps 752 mmHg 87%
    07:00 +28°C° 0 mm 2 mps 753 mmHg 87%
    08:00 +29°C° 0 mm 2 mps 753 mmHg 81%
    09:00 +31°C° 0 mm 2 mps 753 mmHg 75%
    10:00 +32°C° 0 mm 2 mps 754 mmHg 69%
    11:00 +32°C° 0 mm 2 mps 753 mmHg 67%
    12:00 +34°C° 0 mm 3 mps 752 mmHg 65%
    13:00 +34°C° 0 mm 3 mps 751 mmHg 64%
    14:00 +34°C° 0 mm 3 mps 751 mmHg 65%
    15:00 +34°C° 0 mm 3 mps 751 mmHg 67%
    16:00 +33°C° 0 mm 4 mps 750 mmHg 68%
    17:00 +31°C° 0 mm 3 mps 751 mmHg 71%
    18:00 +30°C° 0 mm 3 mps 751 mmHg 75%
    19:00 +30°C° 0 mm 2 mps 752 mmHg 79%
    20:00 +29°C° 0.3 mm 2 mps 752 mmHg 80%
    21:00 +29°C° 0.3 mm 2 mps 753 mmHg 82%
    22:00 +29°C° 0.3 mm 2 mps 753 mmHg 83%
    23:00 +29°C° 0.5 mm 2 mps 753 mmHg 85%

    26 March, Tuesday

    Time Temperature Precipitation Wind Pressure Humidity
    00:00 +28°C° 0.5 mm 2 mps 752 mmHg 86%
    01:00 +28°C° 0.5 mm 2 mps 752 mmHg 88%
    02:00 +28°C° 1.6 mm 1 mps 752 mmHg 89%
    03:00 +28°C° 1.6 mm 1 mps 751 mmHg 90%
    04:00 +28°C° 1.6 mm 1 mps 751 mmHg 91%
    05:00 +28°C° 0.6 mm 1 mps 752 mmHg 91%
    06:00 +28°C° 0.6 mm 1 mps 752 mmHg 90%
    07:00 +28°C° 0.6 mm 1 mps 753 mmHg 90%
    08:00 +29°C° 0 mm 1 mps 753 mmHg 85%
    09:00 +30°C° 0 mm 1 mps 753 mmHg 79%
    10:00 +30°C° 0 mm 1 mps 754 mmHg 74%
    11:00 +31°C° 0 mm 2 mps 753 mmHg 70%
    12:00 +32°C° 0 mm 2 mps 752 mmHg 66%
    13:00 +34°C° 0 mm 2 mps 751 mmHg 62%
    14:00 +34°C° 0 mm 3 mps 751 mmHg 64%
    15:00 +34°C° 0 mm 3 mps 750 mmHg 67%
    16:00 +33°C° 0 mm 4 mps 750 mmHg 69%
    17:00 +32°C° 0 mm 4 mps 751 mmHg 73%
    18:00 +30°C° 0 mm 4 mps 751 mmHg 77%
    19:00 +29°C° 0 mm 4 mps 752 mmHg 81%
    20:00 +29°C° 0 mm 3 mps 752 mmHg 82%
    21:00 +29°C° 0 mm 3 mps 753 mmHg 83%
    22:00 +29°C° 0 mm 2 mps 753 mmHg 84%
    23:00 +29°C° 0 mm 2 mps 753 mmHg 85%

    27 March, Wednesday

    Time Temperature Precipitation Wind Pressure Humidity
    00:00 +28°C° 0 mm 2 mps 753 mmHg 86%
    01:00 +28°C° 0 mm 2 mps 752 mmHg 87%
    02:00 +28°C° 0 mm 2 mps 752 mmHg 87%
    03:00 +28°C° 0 mm 2 mps 752 mmHg 88%
    04:00 +28°C° 0 mm 2 mps 752 mmHg 88%
    05:00 +28°C° 0.1 mm 2 mps 752 mmHg 88%
    06:00 +28°C° 0.1 mm 2 mps 753 mmHg 89%
    07:00 +28°C° 0.1 mm 2 mps 753 mmHg 89%
    08:00 +30°C° 0 mm 2 mps 754 mmHg 83%
    09:00 +31°C° 0 mm 2 mps 754 mmHg 77%
    10:00 +32°C° 0 mm 2 mps 754 mmHg 71%
    11:00 +34°C° 0 mm 2 mps 753 mmHg 66%
    12:00 +35°C° 0 mm 2 mps 753 mmHg 62%
    13:00 +37°C° 0 mm 2 mps 752 mmHg 57%
    14:00 +36°C° 0 mm 3 mps 751 mmHg 59%
    15:00 +36°C° 0 mm 4 mps 751 mmHg 61%
    16:00 +35°C° 0 mm 5 mps 751 mmHg 63%
    17:00 +34°C° 0 mm 5 mps 751 mmHg 70%
    18:00 +33°C° 0 mm 5 mps 752 mmHg 76%
    19:00 +30°C° 0 mm 5 mps 752 mmHg 83%
    20:00 +30°C° 0 mm 4 mps 752 mmHg 84%
    21:00 +30°C° 0 mm 4 mps 753 mmHg 84%
    22:00 +29°C° 0 mm 4 mps 753 mmHg 85%
    23:00 +29°C° 0 mm 3 mps 753 mmHg 86%
    Show more